SCP
0 0 0 0 0 0 0 0 0 0 0 0 0 0 0 0 0 0 0 0 0 0 0 0 0 0 0 0 0 0 0 0 0 0 0 0 0 0 0 0 0 0 0
0 0 0 0 0 0 0 0 0 0 0 0 0 0 0 0 0 0 0 0 0 0 0 0 0 0 0 0 0 0 0 0 0 0 0 0 0 0 0 0 0 0 0
0 0 0 0 0 0 0 0 0 0 0 0 0 0 0 0 0 0 0 0 0 0 0 0 0 0 0 0 0 0 0 0 0 0 0 0 0 0 0 0 0 0 0
0 0 0 0 0 0 0 0 0 0 0 0 0 0 0 0 0 0 0 0 0 0 0 0 0 0 0 0 0 0 0 0 0 0 0 0 0 0 0 0 0 0 0
0 0 0 0 0 0 0 0 0 0 0 0 0 0 0 0 0 0 0 0 0 0 0 0 0 0 0 0 0 0 0 0 0 0 0 0 0 0 0 0 0 0 0
0 0 0 0 0 0 0 0 0 0 0 0 0 0 0 0 0 0 0 0 0 0 0 0 0 0 0 0 0 0 0 0 0 0 0 0 0 0 0 0 0 0 0
0 0 0 0 0 0 0 0 0 0 0 0 0 0 0 0 0 0 0 0 0 0 0 0 0 0 0 0 0 0 0 0 0 0 0 0 0 0 0 0 0 0 0
0 0 0 0 0 0 0 0 0 0 0 0 0 0 0 0 0 0 0 0 0 0 0 0 0 0 0 0 0 0 0 0 0 0 0 0 0 0 0 0 0 0 0
0 0 0 0 0 0 0 0 0 0 0 0 0 0 0 0 0 0 0 0 0 0 0 0 0 0 0 0 0 0 0 0 0 0 0 0 0 0 0 0 0 0 0
0 0 0 0 0 0 0 0 0 0 0 0 0 0 0 0 0 0 0 0 0 0 0 0 0 0 0 0 0 0 0 0 0 0 0 0 0 0 0 0 0 0 0
0 0 0 0 0 0 0 0 0 0 0 0 0 0 0 0 0 0 0 0 0 0 0 0 0 0 0 0 0 0 0 0 0 0 0 0 0 0 0 0 0 0 0
0 0 0 0 0 0 0 0 0 0 0 0 0 0 0 0 0 0 0 0 0 0 0 0 0 0 0 0 0 0 0 0 0 0 0 0 0 0 0 0 0 0 0
0 0 0 0 0 0 0 0 0 0 0 0 0 0 0 0 0 0 0 0 0 0 0 0 0 0 0 0 0 0 0 0 0 0 0 0 0 0 0 0 0 0 0
0 0 0 0 0 0 0 0 0 0 0 0 0 0 0 0 0 0 0 0 0 0 0 0 0 0 0 0 0 0 0 0 0 0 0 0 0 0 0 0 0 0 0
0 0 0 0 0 0 0 0 0 0 0 0 0 0 0 0 0 0 0 0 0 0 0 0 0 0 0 0 0 0 0 0 0 0 0 0 0 0 0 0 0 0 0
0 0 0 0 0 0 0 0 0 0 0 0 0 0 0 0 0 0 0 0 0 0 0 0 0 0 0 0 0 0 0 0 0 0 0 0 0 0 0 0 0 0 0
0 0 0 0 0 0 0 0 0 0 0 0 0 0 0 0 0 0 0 0 0 0 0 0 0 0 0 0 0 0 0 0 0 0 0 0 0 0 0 0 0 0 0
0 0 0 0 0 0 0 0 0 0 0 0 0 0 0 0 0 0 0 0 0 0 0 0 0 0 0 0 0 0 0 0 0 0 0 0 0 0 0 0 0 0 0
0 0 0 0 0 0 0 0 0 0 0 0 0 0 0 0 0 0 0 0 0 0 0 0 0 0 0 0 0 0 0 0 0 0 0 0 0 0 0 0 0 0 0
0 0 0 0 0 0 0 0 0 0 0 0 0 0 0 0 0 0 0 0 0 0 0 0 0 0 0 0 0 0 0 0 0 0 0 0 0 0 0 0 0 0 0
0 0 0 0 0 0 0 0 0 0 0 0 0 0 0 0 0 0 0 0 0 0 0 0 0 0 0 0 0 0 0 0 0 0 0 0 0 0 0 0 0 0 0
0 0 0 0 0 0 0 0 0 0 0 0 0 0 0 0 0 0 0 0 0 0 0 0 0 0 0 0 0 0 0 0 0 0 0 0 0 0 0 0 0 0 0
0 0 0 0 0 0 0 0 0 0 0 0 0 0 0 0 0 0 0 0 0 0 0 0 0 0 0 0 0 0 0 0 0 0 0 0 0 0 0 0 0 0 0
0 0 0 0 0 0 0 0 0 0 0 0 0 0 0 0 0 0 0 0 0 0 0 0 0 0 0 0 0 0 0 0 0 0 0 0 0 0 0 0 0 0 0
0 0 0 0 0 0 0 0 0 0 0 0 0 0 0 0 0 0 0 0 0 0 0 0 0 0 0 0 0 0 0 0 0 0 0 0 0 0 0 0 0 0 0
0 0 0 0 0 0 0 0 0 0 0 0 0 0 0 0 0 0 0 0 0 0 0 0 0 0 0 0 0 0 0 0 0 0 0 0 0 0 0 0 0 0 0
Wind_Speed
6 6 6 7 7 7 7 7 6 5 4 3 2 2 2 1 1 1 1 1 2 2 2 1 2 3 3 4 4 3 4 4 3 3 5 6 9 11 10 9 8 8 9
7 6 7 6 7 7 7 7 6 5 5 3 3 2 2 1 1 1 0 1 1 1 1 2 2 3 3 4 4 4 3 3 2 2 3 6 6 5 6 4 5 7 6
8 7 7 7 6 6 6 6 6 6 6 5 3 2 1 0 0 0 0 1 0 1 1 2 2 3 3 3 4 4 4 4 4 3 4 3 5 5 4 6 5 5 4
8 8 8 7 6 6 6 7 7 6 5 4 3 2 2 1 1 1 1 1 2 1 0 1 2 3 3 4 4 4 4 4 4 4 4 6 6 4 6 4 4 5 6
9 8 8 8 7 6 5 6 7 6 5 4 3 3 3 2 1 1 1 2 1 2 2 2 2 3 3 4 5 5 4 4 5 5 4 5 5 6 8 10 6 6 6
9 8 8 8 7 5 5 5 6 5 4 4 4 4 4 3 3 3 3 2 2 1 1 1 2 3 4 5 5 5 6 5 6 5 5 5 5 6 7 10 9 9 6
9 9 9 8 7 6 5 5 6 5 4 4 3 4 3 2 2 2 2 3 2 2 2 2 3 4 4 5 5 5 6 6 7 7 6 6 7 6 7 10 12 12 8
9 9 9 8 7 7 6 5 5 5 4 3 3 3 2 1 1 2 2 3 2 2 3 4 4 5 6 6 5 5 6 6 7 9 8 7 7 6 7 7 10 15 13
10 10 9 8 8 7 6 6 6 5 4 3 3 3 2 2 2 2 3 2 3 3 4 5 6 6 6 6 6 5 7 6 7 7 8 7 7 6 6 7 7 10 17
10 10 8 8 7 6 5 5 5 5 3 3 2 1 1 2 2 3 4 4 4 4 5 6 6 6 7 7 6 6 7 7 7 6 8 8 7 6 6 6 7 7 12
11 9 8 8 8 7 6 5 5 4 3 2 2 1 1 2 3 3 4 4 4 5 6 6 6 7 7 7 7 7 7 8 8 8 8 9 8 7 7 7 7 7 8
10 9 9 8 7 7 6 5 5 4 3 2 1 1 2 3 3 4 5 5 5 6 6 7 7 8 8 8 8 8 8 8 9 9 9 9 9 10 8 8 9 8 8
9 9 8 8 7 7 6 5 5 4 3 2 1 2 3 3 4 5 5 5 6 7 7 7 8 8 8 8 8 9 9 9 9 9 10 10 11 13 11 11 11 10 11
9 8 8 7 7 6 6 5 4 4 3 1 1 3 4 4 4 5 6 6 7 7 8 8 8 9 9 9 9 9 10 10 10 10 10 12 12 14 14 13 13 12 12
8 8 7 7 7 6 5 4 3 3 2 1 2 4 4 4 5 6 6 7 7 8 8 9 9 9 8 8 9 9 9 10 11 10 11 12 17 23 19 15 12 11 12
8 8 7 7 7 6 5 4 3 2 2 2 4 4 4 5 6 6 7 7 8 8 9 9 9 9 8 18 24 19 10 9 9 10 10 11 16 20 26 28 26 22 15
8 8 7 6 5 5 4 3 2 1 1 3 4 5 5 6 6 7 7 8 8 9 9 9 9 9 11 21 25 25 16 10 9 10 10 11 13 20 12 19 25 23 27
8 7 6 6 5 4 3 2 1 1 3 4 5 5 5 6 7 7 8 8 8 8 8 8 9 9 12 24 26 26 15 9 10 10 12 13 13 13 16 13 13 13 15
7 7 6 6 4 4 3 2 1 2 4 5 6 6 5 6 7 8 9 9 8 8 8 8 9 10 12 21 25 26 10 9 10 11 11 14 13 21 28 18 14 14 13
7 6 5 4 3 3 2 1 2 4 5 6 6 6 6 7 8 9 9 8 7 9 9 9 9 10 10 18 24 25 8 9 10 9 10 19 22 26 28 17 13 15 14
7 6 4 3 2 2 1 2 4 5 6 6 6 6 7 8 9 8 7 8 8 8 8 9 8 8 11 17 23 24 11 9 11 10 9 10 24 28 29 25 15 18 19
5 4 3 2 1 1 1 3 5 6 6 6 7 7 8 8 7 8 8 8 8 8 9 9 10 7 9 14 18 25 24 23 14 11 9 12 26 29 29 22 21 27 22
4 3 2 1 1 2 2 4 6 6 6 7 7 8 8 7 7 8 8 8 7 7 8 8 9 9 6 9 22 25 27 27 18 12 22 27 30 27 19 21 26 20 9
4 2 1 1 3 3 3 4 6 6 6 7 7 7 7 8 7 6 6 6 6 7 7 8 10 10 8 7 7 8 12 17 16 13 18 25 25 20 19 17 13 7 7
3 2 1 3 4 4 5 5 6 6 7 7 7 7 7 7 7 7 6 8 7 9 12 9 8 11 12 13 24 20 12 11 13 16 11 9 8 7 7 7 7 6 6
2 1 2 4 4 5 6 6 6 6 6 7 7 6 6 6 7 8 9 12 14 22 23 23 21 16 21 28 29 29 28 28 28 19 10 9 8 8 8 8 7 6 6
Wind_Direction
108 98 91 85 83 85 97 106 111 107 103 103 110 114 133 175 196 226 281 288 265 255 242 246 269 277 273 267 262 263 274 279 278 298 297 278 257 253 252 248 245 243 240
120 112 106 101 99 99 102 105 107 105 98 94 92 91 95 84 82 44 34 325 310 287 246 239 251 257 262 273 272 265 268 273 266 258 309 311 309 279 260 257 245 243 239
137 125 111 102 97 97 103 104 103 99 97 100 96 84 78 41 63 133 149 266 291 333 301 271 265 270 261 260 261 255 254 264 267 218 214 262 277 311 296 279 274 267 260
134 130 123 112 104 100 99 103 105 103 104 106 100 111 102 93 103 111 182 246 191 170 258 296 292 284 276 270 265 253 243 244 259 262 234 229 234 270 296 287 286 295 283
138 133 127 123 115 108 107 108 106 104 102 97 90 70 61 48 44 20 13 345 297 175 195 220 264 277 272 269 270 274 264 247 244 244 250 260 260 245 261 280 273 264 257
141 134 129 125 120 120 117 117 112 109 106 99 96 82 64 27 22 12 6 345 327 310 269 217 256 268 266 263 262 261 261 256 255 252 245 244 247 251 254 272 278 276 268
150 148 149 145 142 140 136 130 123 120 112 100 89 95 84 29 27 22 353 336 327 325 321 332 293 281 273 269 263 260 258 256 256 254 253 249 250 248 254 269 280 281 277
160 160 161 153 148 149 148 136 123 114 101 92 77 74 79 63 30 4 330 312 302 298 307 308 291 284 281 278 272 266 260 257 254 257 257 256 256 253 252 260 277 286 285
165 163 159 152 150 153 151 137 127 116 101 88 72 51 35 42 9 329 310 301 294 292 299 295 288 284 283 280 278 269 266 264 260 261 261 261 260 257 256 255 253 272 286
163 161 158 153 150 147 136 124 120 117 108 86 81 58 360 17 343 313 302 296 296 299 299 293 289 287 285 283 280 277 273 274 271 268 269 270 269 266 261 258 258 254 270
165 161 158 151 142 137 137 133 128 123 116 94 67 16 351 339 314 298 291 293 293 293 290 289 289 287 285 283 281 279 283 283 283 284 284 281 282 281 275 270 266 262 262
160 155 151 145 144 148 149 144 140 135 130 112 47 327 313 301 296 293 297 301 298 295 291 289 286 284 284 284 284 285 286 285 286 287 289 289 293 288 285 280 275 272 266
152 148 147 149 152 154 151 150 150 147 142 130 299 301 302 303 300 300 302 302 296 291 288 286 285 284 284 283 280 279 278 277 277 279 281 283 285 284 282 279 277 275 274
150 150 151 152 152 153 153 151 150 145 145 164 257 283 288 291 292 294 294 291 288 286 285 282 279 278 277 277 277 276 274 273 271 269 270 274 275 277 278 276 273 271 270
154 154 155 151 148 149 149 145 145 149 157 213 259 267 273 281 285 285 284 284 283 282 279 278 277 274 276 275 275 271 266 267 269 268 267 270 278 280 282 280 273 267 268
157 152 149 146 148 151 150 144 158 172 180 239 261 270 276 279 278 278 280 281 281 280 279 278 277 278 280 292 297 298 286 273 273 277 276 277 284 285 287 287 288 284 279
149 149 147 143 142 142 141 153 171 176 227 258 267 271 271 274 275 277 282 281 281 281 281 279 279 280 285 297 302 302 300 287 282 283 286 289 288 292 283 283 285 285 284
137 137 134 132 130 128 135 147 167 231 256 264 269 271 272 274 278 281 281 280 278 280 281 283 284 286 291 302 304 305 301 287 282 282 283 283 283 281 284 276 270 266 270
120 121 121 124 127 138 152 162 231 262 270 273 275 276 278 281 284 282 280 279 281 284 284 284 286 287 292 301 304 305 294 288 284 282 283 286 284 285 291 290 281 279 275
100 105 108 117 137 156 146 180 258 272 275 276 277 281 283 283 281 279 279 280 282 282 283 283 282 285 290 301 306 307 296 292 290 285 281 287 289 291 293 290 283 283 283
107 113 123 138 158 149 150 246 267 270 273 279 284 285 281 279 278 280 280 282 282 283 284 287 287 286 291 303 305 305 303 294 293 293 291 285 294 295 295 295 289 285 289
125 131 136 150 161 172 227 264 269 271 279 285 285 283 281 281 285 284 284 283 285 289 289 290 290 283 287 295 300 303 304 304 300 296 293 289 295 297 298 298 294 296 299
138 136 142 175 245 252 247 264 272 279 286 286 284 284 286 285 284 285 288 290 287 284 286 287 290 291 281 287 298 302 303 302 299 291 294 298 301 303 301 296 297 298 294
140 141 154 243 271 276 276 272 282 288 289 288 288 289 291 290 287 285 284 285 284 283 285 288 291 293 289 283 283 281 292 296 296 294 293 297 298 295 293 295 296 287 276
140 152 212 258 271 281 283 283 286 291 290 288 287 289 287 288 290 285 279 284 272 279 291 289 286 293 297 294 302 306 302 298 294 300 295 291 291 285 285 287 284 281 284
155 197 248 269 281 289 288 287 287 288 289 290 288 286 286 287 287 289 290 283 283 294 296 295 295 295 296 304 307 308 309 309 308 308 298 296 294 293 294 295 293 290 288